Location: Esp�s Alto
(42.4476°N, 0.5876°E)
Time: 21:33:23
(UTC+00:00)

SL-16 R/B - Pass Details

Date: 22 October 2019
Orbit: 840 x 850 km, 71.0° (Epoch: 13 November)

Event Time Altitude Azimuth Distance (km) Brightness Sun altitude
Exits shadow 03:23:18 12° 154° (SSE) 2,343 4.6 -32.7°
Maximum altitude 03:27:29 26° 102° (ESE) 1,609 4.1 -32.0°
Drops below altitude 10° 03:32:04 10° 48° (NE) 2,472 5.3 -31.2°
Sets 03:34:52 0° 36° (NE) 3,414 6.0 -30.7°
